DW7898 Weather Reports


time (UTC)temp
C
wind
direction
speed
KPH
gust
KPH
rain 1hr
cm
rain 24hr
cm
rain mn
cm
humidity
%
barometer
mb
20260505101335 17 244 3.2 12.9 0.00 0.15 0.00 61 1012.7
20260505100339 17 213 4.8 11.3 0.00 0.15 0.00 61 1012.7
20260505095338 17 28 0.0 4.8 0.00 0.15 0.00 64 1012.6
20260505094356 17 56 0.0 4.8 0.00 0.15 0.00 69 1012.6
20260505093342 16 56 3.2 11.3 0.00 0.15 0.00 71 1012.5
20260505092345 16 120 4.8 9.7 0.00 0.15 0.00 73 1012.2
20260505091351 16 15 6.4 9.7 0.00 0.15 0.00 74 1012.1
20260505090337 16 255 4.8 9.7 0.00 0.15 0.00 73 1013.0
20260505085338 16 254 4.8 9.7 0.00 0.15 0.00 71 1013.0
20260505084337 16 269 4.8 9.7 0.00 0.15 0.00 69 1012.9
20260505083338 16 231 4.8 8.0 0.00 0.15 0.00 68 1012.8
20260505082338 16 79 0.0 0.0 0.00 0.15 0.00 70 1012.5
20260505081336 16 80 0.0 6.4 0.00 0.15 0.00 74 1012.5
20260505080355 15 90 3.2 9.7 0.00 0.15 0.00 76 1012.5
20260505075353 15 233 0.0 6.4 0.00 0.15 0.00 82 1012.5
20260505074336 13 218 0.0 4.8 0.00 0.15 0.00 84 1012.6
20260505073337 13 215 3.2 6.4 0.00 0.15 0.00 85 1012.9
20260505072354 13 209 3.2 4.8 0.00 0.15 0.00 89 1012.9
20260505071342 13 205 1.6 4.8 0.00 0.15 0.00 90 1012.8
20260505070347 13 202 0.0 4.8 0.00 0.15 0.00 92 1013.0
20260505065349 13 203 0.0 4.8 0.00 0.15 0.00 94 1012.9
20260505064355 13 217 1.6 3.2 0.00 0.15 0.00 95 1012.9
20260505063355 12 214 0.0 1.6 0.00 0.15 0.00 95 1012.8
20260505062355 12 214 0.0 3.2 0.00 0.15 0.00 95 1012.9
20260505061355 12 214 0.0 1.6 0.00 0.15 0.00 95 1012.9
20260505060340 11 214 0.0 0.0 0.00 0.15 0.00 95 1013.0
20260505055341 11 214 0.0 3.2 0.00 0.15 0.00 95 1013.0
20260505054345 12 214 1.6 3.2 0.00 0.15 0.00 96 1013.0
20260505053353 11 214 0.0 3.2 0.00 0.15 0.00 96 1012.8
20260505052352 11 214 0.0 4.8 0.00 0.15 0.00 96 1012.8
20260505051338 11 218 1.6 3.2 0.00 0.15 0.00 95 1012.9
20260505050344 11 218 1.6 3.2 0.00 0.15 0.00 95 1012.8
20260505041407 11 206 0.0 0.0 0.00 0.15 0.00 94 1013.0
20260505040402 11 206 0.0 0.0 0.00 0.15 0.00 94 1012.9
20260505035409 11 206 0.0 3.2 0.00 0.15 0.00 95 1013.0
20260505034401 11 206 1.6 4.8 0.00 0.15 0.00 94 1012.9
20260505033354 11 206 0.0 4.8 0.00 0.15 0.00 94 1012.8
20260505032403 11 206 1.6 4.8 0.00 0.15 0.00 94 1012.9
20260505031416 11 206 0.0 0.0 0.00 0.15 0.00 94 1012.9
20260505030409 11 206 3.2 4.8 0.00 0.15 0.00 94 1012.9
20260505025402 12 206 0.0 0.0 0.00 0.15 0.00 94 1012.9
20260505024359 12 206 0.0 0.0 0.00 0.15 0.00 94 1013.0
20260505023355 12 206 0.0 1.6 0.00 0.15 0.00 94 1013.0
20260505022408 12 206 1.6 6.4 0.00 0.15 0.00 93 1012.9
20260505021404 12 206 0.0 0.0 0.00 0.15 0.00 92 1012.9
20260505020357 12 206 0.0 1.6 0.00 0.15 0.00 93 1012.8
20260505015406 12 206 0.0 0.0 0.00 0.15 0.00 92 1012.8
20260505013403 12 206 1.6 3.2 0.00 0.15 0.00 93 1012.8
20260505012406 12 206 0.0 1.6 0.00 0.15 0.00 93 1012.9
20260505011404 12 206 1.6 6.4 0.00 0.15 0.00 93 1012.9
20260505010356 12 206 0.0 3.2 0.00 0.15 0.00 93 1013.0
20260505005400 12 206 1.6 8.0 0.03 0.15 0.00 93 1013.0
20260505003401 13 207 1.6 6.4 0.03 0.15 0.00 93 1012.9
20260505002358 13 208 0.0 8.0 0.03 0.15 0.00 93 1013.1
20260505001402 13 209 1.6 6.4 0.03 0.15 0.00 94 1013.1
20260505000413 13 209 1.6 3.2 0.03 0.15 0.00 93 1013.1
20260504235357 13 208 0.0 4.8 0.00 0.15 0.00 93 1013.1
20260504234405 13 209 1.6 8.0 0.00 0.15 0.00 93 1012.9
20260504233401 13 210 1.6 6.4 0.00 0.15 0.00 93 1013.0
20260504232354 13 209 3.2 4.8 0.00 0.15 0.00 92 1013.0
20260504231406 13 209 3.2 6.4 0.00 0.15 0.00 92 1013.0
20260504230413 13 209 1.6 4.8 0.00 0.15 0.00 92 1012.9
20260504225402 13 209 3.2 8.0 0.00 0.15 0.00 92 1012.9
20260504224403 13 210 1.6 6.4 0.00 0.15 0.00 91 1012.8
20260504223402 13 206 1.6 8.0 0.00 0.15 0.00 90 1012.6
20260504222354 13 206 1.6 11.3 0.00 0.15 0.00 90 1012.6
20260504221356 14 207 3.2 8.0 0.00 0.15 0.00 88 1012.7
20260504220400 14 204 1.6 4.8 0.00 0.15 0.00 88 1012.5
20260504215413 14 259 1.6 4.8 0.00 0.15 0.13 86 1012.4
20260504214354 15 258 1.6 6.4 0.03 0.15 0.13 85 1012.5
20260504213413 15 251 4.8 8.0 0.05 0.15 0.13 85 1012.6
20260504212419 15 168 1.6 6.4 0.05 0.15 0.13 83 1012.7
20260504211419 15 166 1.6 4.8 0.05 0.15 0.13 82 1012.8
20260504210411 15 291 0.0 3.2 0.05 0.15 0.13 81 1013.1
20260504205348 15 291 1.6 4.8 0.08 0.15 0.08 79 1012.9
20260504204415 15 291 0.0 9.7 0.05 0.18 0.08 78 1013.2
20260504203410 16 318 1.6 11.3 0.05 0.15 0.08 77 1013.3
20260504202356 16 259 8.0 20.9 0.03 0.15 0.05 76 1013.6
20260504201400 16 261 12.9 35.4 0.03 0.15 0.05 76 1013.5
20260504200400 17 253 14.5 22.5 0.03 0.15 0.05 83 1013.3
20260504195359 17 223 3.2 8.0 0.00 0.13 0.05 84 1012.7
20260504194358 17 219 1.6 6.4 0.00 0.13 0.05 83 1012.5
20260504193359 17 216 3.2 8.0 0.00 0.13 0.05 83 1012.4
20260504191359 17 220 6.4 8.0 0.00 0.13 0.05 81 1012.1
20260504190357 17 216 4.8 9.7 0.00 0.13 0.05 81 1012.1
20260504185413 17 211 4.8 8.0 0.00 0.13 0.05 81 1012.0
20260504184409 17 210 3.2 4.8 0.00 0.15 0.05 80 1011.8
20260504183405 17 210 4.8 8.0 0.00 0.15 0.05 79 1011.8
20260504182413 17 207 4.8 8.0 0.00 0.15 0.05 78 1011.6
20260504181409 17 181 1.6 9.7 0.00 0.15 0.05 78 1011.3
20260504180404 17 221 6.4 11.3 0.00 0.15 0.05 77 1011.3
20260504175358 18 229 3.2 8.0 0.00 0.15 0.05 77 1011.4
20260504174353 18 197 1.6 6.4 0.00 0.15 0.05 76 1011.3
20260504173424 18 116 1.6 6.4 0.00 0.15 0.05 76 1011.5
20260504172423 18 114 1.6 4.8 0.00 0.15 0.05 75 1011.6
20260504171413 18 110 0.0 3.2 0.00 0.15 0.05 76 1011.5
20260504170415 18 112 1.6 4.8 0.00 0.15 0.05 76 1011.6
20260504160415 17 127 4.8 8.0 0.03 0.15 0.05 77 1011.9
20260504150400 17 283 6.4 11.3 0.00 0.13 0.05 78 1012.4
20260504140352 18 214 9.7 19.3 0.00 0.13 0.05 71 1012.4
20260504130341 19 191 1.6 14.5 0.00 0.13 0.05 70 1012.6
20260504110339 20 114 6.4 17.7 0.00 0.08 0.00 67 1012.8